Regional Weather Roundup
Issued by NWS New Orleans/Baton Rouge, LA

Home | Current Version | Previous Version | Text Only | Print | Product List | Glossary On
Versions: 1 2 3 4 5 6 7 8 9 10 11 12 13 14 15 16 17 18 19 20 21 22 23 24 25 26 27 28 29 30 31 32 33 34 35 36 37 38 39 40 41 42 43 44 45 46 47 48 49 50
000
ASUS44 KLIX 302111
RWRLIX
NEW ORLEANS REGIONAL WEATHER ROUNDUP
NATIONAL WEATHER SERVICE NEW ORLEANS LA
400 PM CDT SAT MAY 30 2015

NOTE: "FAIR" INDICATES FEW OR NO CLOUDS BELOW 12,000 FEET WITH NO
      SIGNIFICANT WEATHER AND/OR OBSTRUCTIONS TO VISIBILITY.
      SKY/WX - SKY CONDITION AND SIGNIFICANT WEATHER.
      TMP - AIR TEMPERATURE.     DP    - DEWPOINT TEMPERATURE.
      RH  - RELATIVE HUMIDITY.   PRES  - PRESSURE.
      HI  - HEAT INDEX.          WCI   - WIND CHILL INDEX.

*  THESE STATIONS ARE NOT NWS OR FAA STATIONS AND ARE NOT UNDER
   NWS QUALITY CONTROL.

LAZ038-040-048-061>063-065>067-069-302200-
SOUTHEAST LOUISIANA

CITY           SKY/WX    TMP DP  RH WIND       PRES   REMARKS
N.O. AUDUBON     N/A     82  78  88 MISG        N/A
N.O. INTL ARPT TSTM      75  67  76 VRB6      30.02S
N.O. LAKEFRONT MOSUNNY   83  69  62 SE12      30.03F
SLIDELL        MOSUNNY   86  72  62 S10       30.01F
BATON ROUGE    TSTM      82  71  69 CALM      30.00S
BOOTHVILLE     MOSUNNY   84  70  62 E9        30.03F
BELLE CHASSE   LGT RAIN  83  69  62 SE14      30.02F
BOGALUSA*        N/A     85  69  58 S12       30.03F
GALLIANO*      PTCLDY    86  70  58 SE6       30.02F
NEW ROADS*       N/A     85  69  58 E3        29.99S
GONZALES*        N/A     85  71  62 S13       30.00R THUNDER
HAMMOND*       MOSUNNY   88  68  51 SE12      30.03S
HOUMA*         NOT AVBL
PORT FOURCHON* PTCLDY    82  72  69 SE13      30.03S

$$

MSZ070-080>082-302200-
SOUTHERN MISSISSIPPI

CITY           SKY/WX    TMP DP  RH WIND       PRES   REMARKS
MCCOMB         PTSUNNY   86  69  56 SW5       30.01F
GULFPORT       MOSUNNY   83  66  56 SE10      30.02F
BILOXI         MOSUNNY   83  68  60 SE9       30.02F
PASCAGOULA     MOSUNNY   84  67  56 SE12      30.04S
STENNIS ARPT*  MOSUNNY   84  66  54 MISG      30.03F

$$

COASTAL OBSERVATIONS
LAKE AND NEARSHORE STATIONS

STATION/POSITION TIME  TEMP    WIND        PRES    WAVE
                       AIR SEA DIR/SP/G            HT/PER
                 (UTC) (F)     (DEG/KT/KT) (MB)    (FT/S)
PASCAGOULA       2000   84     160/  9/ 15 1017.1
WAVELAND YACHT   2000   80 83  160/ 10/ 12 1017.6
GRAND ISLE       2000   82 84  120/  7/ 13 1017.0
SOUTHWEST PASS   2000   84 75  120/  7/ 11 1017.7
NEW CANAL        2000   78 82  150/  4/  8 1016.3
SHELL BEACH      2000   81 83  120/ 10/ 12 1016.6

OFFSHORE STATIONS

STATION/POSITION TIME  TEMP    WIND        PRES    WAVE
                       AIR SEA DIR/SP/G            HT/PER
                 (UTC) (F)     (DEG/KT/KT) (MB)    (FT/S)
64 S DAUPHIN ISL 2050   79 84  170/  4/  6 1017.4    2/ 7

$$




USA.gov is the U.S. government's official web portal to all federal, state and local government web resources and services.